Date String (YYYY-MM-DD hh:mm:ss) UTC,Instrument flags,Ambient pressure (hPa),Sample flow (lpm),Bypass flow (lpm),Sample temperature (°C),Ambient temperature (°C),ASC tube jacket temperature (°C),LED temperature (°C),Box temperature (°C),Sample RH (%),Span deviation,Mass concentration (μg/m³),Mass concentration (μg/m³),Mass concentration (μg/m³)
DateTimeUTC,F1_M11,P_M11,Q1_M11,Q2_M11,T1_M11,T2_M11,T3_M11,T4_M11,T5_M11,U1_M11,ZSPAN_M11,X0_M11,X2_M11,X1_M11
2022-12-08 05:00:00,,0824.9,5.00,0.00,21.8,20.2,00.0,31.0,23.5,12.5,0000.0,0014.46,0005.39,0004.53
2022-12-08 05:01:00,,0824.9,5.00,0.00,21.8,20.2,00.0,31.0,23.5,12.5,0000.0,0014.72,0005.39,0004.54
2022-12-08 05:02:00,,0824.9,5.00,0.00,21.8,20.1,00.0,30.9,23.5,12.5,0000.0,0014.62,0005.41,0004.57
2022-12-08 05:03:00,,0824.9,5.01,0.00,21.8,20.1,00.0,30.9,23.5,12.5,0000.0,0014.17,0005.47,0004.60
2022-12-08 05:04:00,,0824.9,5.00,0.00,21.8,20.2,00.0,30.9,23.5,12.5,0000.0,0012.74,0005.49,0004.61
2022-12-08 05:05:00,,0824.9,5.00,0.00,21.8,20.1,00.0,30.9,23.5,12.5,0000.0,0012.47,0005.50,0004.63
2022-12-08 05:06:00,,0824.9,5.00,0.00,21.8,20.1,00.0,30.9,23.5,12.5,0000.0,0012.59,0005.54,0004.65
2022-12-08 05:07:00,,0824.9,5.00,0.00,21.8,20.1,00.0,30.9,23.5,12.5,0000.0,0012.95,0005.55,0004.67
2022-12-08 05:08:00,,0824.9,5.00,0.00,21.8,20.2,00.0,30.9,23.5,12.5,0000.0,0012.89,0005.54,0004.66
2022-12-08 05:09:00,,0824.9,4.99,0.00,21.8,20.2,00.0,30.9,23.5,12.5,0000.0,0012.50,0005.51,0004.65
2022-12-08 05:10:00,,0824.9,5.01,0.00,21.8,20.2,00.0,30.8,23.5,12.5,0000.0,0012.88,0005.50,0004.65
2022-12-08 05:11:00,,0824.9,5.00,0.00,21.8,20.2,00.0,30.8,23.5,12.5,0000.0,0012.86,0005.47,0004.64
2022-12-08 05:12:00,,0824.8,5.01,0.00,21.8,20.2,00.0,30.8,23.5,12.5,0000.0,0012.92,0005.51,0004.63
2022-12-08 05:13:00,,0824.8,4.99,0.00,21.8,20.2,00.0,30.8,23.5,12.5,0000.0,0012.71,0005.58,0004.62
2022-12-08 05:14:00,,0824.8,4.99,0.00,21.8,20.3,00.0,30.8,23.5,12.5,0000.0,0012.59,0005.56,0004.60
2022-12-08 05:15:00,,0824.8,5.01,0.00,21.8,20.3,00.0,30.8,23.5,12.5,0000.0,0013.20,0005.60,0004.60
2022-12-08 05:16:00,,0824.8,5.01,0.00,21.8,20.3,00.0,30.8,23.5,12.5,0000.0,0013.97,0005.55,0004.58
2022-12-08 05:17:00,,0824.8,5.00,0.00,21.8,20.3,00.0,30.8,23.5,12.5,0000.0,0013.72,0005.53,0004.57
2022-12-08 05:18:00,,0824.8,5.00,0.00,21.8,20.3,00.0,30.8,23.5,12.5,0000.0,0013.59,0005.56,0004.59
2022-12-08 05:19:00,,0824.7,5.00,0.00,21.8,20.3,00.0,30.8,23.5,12.5,0000.0,0013.25,0005.59,0004.60
2022-12-08 05:20:00,,0824.7,5.00,0.00,21.8,20.4,00.0,30.8,23.6,12.5,0000.0,0014.01,0005.65,0004.60
2022-12-08 05:21:00,,0824.7,5.00,0.00,21.8,20.5,00.0,30.8,23.6,12.4,0000.0,0014.28,0005.66,0004.60
2022-12-08 05:22:00,,0824.7,5.00,0.00,21.8,20.6,00.0,30.8,23.6,12.4,0000.0,0014.34,0005.64,0004.60
2022-12-08 05:23:00,,0824.7,5.00,0.00,21.8,20.5,00.0,30.8,23.6,12.4,0000.0,0014.05,0005.60,0004.59
2022-12-08 05:24:00,,0824.7,5.00,0.00,21.8,20.5,00.0,30.8,23.6,12.4,0000.0,0013.59,0005.53,0004.59
2022-12-08 05:25:00,,0824.7,5.00,0.00,21.9,20.5,00.0,30.8,23.6,12.4,0000.0,0013.39,0005.49,0004.59
2022-12-08 05:26:00,,0824.7,5.00,0.00,21.9,20.4,00.0,30.8,23.7,12.4,0000.0,0012.91,0005.44,0004.59
2022-12-08 05:27:00,,0824.7,5.00,0.00,21.9,20.4,00.0,30.8,23.7,12.4,0000.0,0012.56,0005.48,0004.60
2022-12-08 05:28:00,,0824.6,5.00,0.00,21.8,20.4,00.0,30.8,23.6,12.4,0000.0,0012.72,0005.46,0004.59
2022-12-08 05:29:00,,0824.6,4.99,0.00,21.8,20.4,00.0,30.8,23.6,12.4,0000.0,0012.46,0005.41,0004.56
2022-12-08 05:30:00,,0824.7,5.00,0.00,21.8,20.4,00.0,30.8,23.6,12.4,0000.0,0012.54,0005.33,0004.53
2022-12-08 05:31:00,,0824.7,5.00,0.00,21.8,20.3,00.0,30.8,23.6,12.4,0000.0,0012.29,0005.30,0004.52
2022-12-08 05:32:00,,0824.7,5.00,0.00,21.8,20.3,00.0,30.8,23.6,12.4,0000.0,0012.10,0005.31,0004.51
2022-12-08 05:33:00,,0824.7,5.00,0.00,21.8,20.3,00.0,30.8,23.6,12.4,0000.0,0012.87,0005.32,0004.50
2022-12-08 05:34:00,,0824.6,5.00,0.00,21.8,20.4,00.0,30.8,23.6,12.4,0000.0,0013.21,0005.32,0004.49
2022-12-08 05:35:00,,0824.6,5.01,0.00,21.8,20.4,00.0,30.8,23.6,12.4,0000.0,0013.74,0005.32,0004.46
2022-12-08 05:36:00,,0824.6,5.00,0.00,21.8,20.4,00.0,30.8,23.7,12.4,0000.0,0014.56,0005.35,0004.46
2022-12-08 05:37:00,,0824.6,4.99,0.00,21.9,20.4,00.0,30.8,23.7,12.4,0000.0,0015.41,0005.39,0004.45
2022-12-08 05:38:00,,0824.6,5.00,0.00,21.9,20.5,00.0,30.8,23.7,12.4,0000.0,0015.27,0005.39,0004.44
2022-12-08 05:39:00,,0824.6,4.99,0.00,21.9,20.6,00.0,30.8,23.7,12.4,0000.0,0015.48,0005.40,0004.44
2022-12-08 05:40:00,,0824.6,5.00,0.00,21.9,20.6,00.0,30.8,23.8,12.4,0000.0,0016.33,0005.41,0004.43
2022-12-08 05:41:00,,0824.6,5.01,0.00,21.9,20.7,00.0,30.8,23.8,12.4,0000.0,0017.15,0005.47,0004.44
2022-12-08 05:42:00,,0824.6,5.00,0.00,21.9,20.8,00.0,30.8,23.8,12.3,0000.0,0017.13,0005.45,0004.44
2022-12-08 05:43:00,,0824.6,5.00,0.00,22.0,20.8,00.0,30.8,23.9,12.3,0000.0,0016.97,0005.42,0004.44
2022-12-08 05:44:00,,0824.6,5.00,0.00,22.0,20.9,00.0,30.8,23.9,12.3,0000.0,0015.89,0005.41,0004.44
2022-12-08 05:45:00,,0824.6,5.00,0.00,22.0,20.9,00.0,30.8,23.9,12.4,0000.0,0015.61,0005.43,0004.46
2022-12-08 05:46:00,,0824.6,5.00,0.00,22.1,20.9,00.0,30.9,24.0,12.5,0000.0,0014.98,0005.48,0004.51
2022-12-08 05:47:00,,0824.7,5.00,0.00,22.1,21.0,00.0,30.9,24.0,12.5,0000.0,0014.50,0005.48,0004.54
2022-12-08 05:48:00,,0824.6,5.00,0.00,22.1,21.0,00.0,30.9,24.0,12.5,0000.0,0013.42,0005.47,0004.58
2022-12-08 05:49:00,,0824.6,5.01,0.00,22.1,21.0,00.0,30.9,24.0,12.5,0000.0,0013.91,0005.50,0004.62
2022-12-08 05:50:00,,0824.6,5.00,0.00,22.2,21.0,00.0,30.9,24.1,12.5,0000.0,0013.99,0005.52,0004.65
2022-12-08 05:51:00,,0824.9,5.00,0.00,22.2,21.0,00.0,30.9,24.1,12.4,0000.0,0013.34,0005.56,0004.67
2022-12-08 05:52:00,,0824.7,4.99,0.00,22.2,21.1,00.0,31.0,24.1,12.4,0000.0,0012.71,0005.52,0004.68
2022-12-08 05:53:00,,0824.8,5.00,0.00,22.2,21.1,00.0,31.0,24.1,12.4,0000.0,0012.11,0005.53,0004.69
2022-12-08 05:54:00,,0824.5,5.01,0.00,22.2,21.1,00.0,31.0,24.1,12.4,0000.0,0012.37,0005.58,0004.72
2022-12-08 05:55:00,,0824.5,5.01,0.00,22.2,21.1,00.0,31.0,24.1,12.3,0000.0,0012.88,0005.61,0004.75
2022-12-08 05:56:00,,0824.6,5.00,0.00,22.3,21.1,00.0,31.0,24.1,12.3,0000.0,0012.97,0005.62,0004.77
2022-12-08 05:57:00,,0824.6,4.99,0.00,22.3,21.1,00.0,31.0,24.1,12.3,0000.0,0012.98,0005.60,0004.76
2022-12-08 05:58:00,,0824.6,5.00,0.00,22.3,21.1,00.0,31.0,24.1,12.3,0000.0,0012.94,0005.60,0004.76
2022-12-08 05:59:00,,0824.4,5.01,0.00,22.3,21.1,00.0,31.0,24.1,12.3,0000.0,0013.05,0005.63,0004.74
